This is the latest recevied weather packets stored in our database for station/object KC3UTO. If no packets are shown the sender has not sent any weather packets the latest 10 day(s).
| Time | Temp. | Humidity | Pressure | Rain* | Wind** | Luminosity | Snow |
|---|---|---|---|---|---|---|---|
| 1777808642 | 7.22° C | 56% | 1013.4 hPa | 0 mm | - | 108 W/m² | - |
| 1777808339 | 7.22° C | 55% | 1013.3 hPa | 0 mm | - | 81 W/m² | - |
| 1777808038 | 7.22° C | 55% | 1013.1 hPa | 0 mm | - | 91 W/m² | - |
| 1777807734 | 7.22° C | 56% | 1013.1 hPa | 0 mm | - | 81 W/m² | - |
| 1777807434 | 6.67° C | 55% | 1012.8 hPa | 0 mm | - | 62 W/m² | - |
| 1777807133 | 6.67° C | 56% | 1012.8 hPa | 0 mm | - | 63 W/m² | - |
| 1777806831 | 6.67° C | 56% | 1013 hPa | 0 mm | - | 50 W/m² | - |
| 1777806527 | 6.67° C | 56% | 1012.8 hPa | 0 mm | - | 46 W/m² | - |
| 1777806224 | 6.67° C | 55% | 1012.8 hPa | 0 mm | - | 42 W/m² | - |
| 1777805920 | 6.67° C | 56% | 1012.7 hPa | 0 mm | - | 39 W/m² | - |
| 1777805617 | 6.67° C | 55% | 1012.6 hPa | 0 mm | - | 30 W/m² | - |
| 1777805315 | 6.67° C | 55% | 1012.4 hPa | 0 mm | - | 24 W/m² | - |
| 1777805012 | 6.67° C | 55% | 1012.6 hPa | 0 mm | - | 20 W/m² | - |
| 1777804710 | 6.67° C | 55% | 1012.3 hPa | 0 mm | - | 17 W/m² | - |
| 1777804407 | 6.67° C | 55% | 1012.3 hPa | 0 mm | - | 14 W/m² | - |
| 1777804104 | 6.67° C | 54% | 1012.2 hPa | 0 mm | - | 10 W/m² | - |
| 1777803801 | 6.67° C | 54% | 1012.2 hPa | 0 mm | - | 8 W/m² | - |
| 1777803496 | 6.67° C | 54% | 1011.9 hPa | 0 mm | - | 6 W/m² | - |
| 1777803195 | 6.67° C | 54% | 1011.9 hPa | 0 mm | - | 4 W/m² | - |
| 1777802891 | 6.67° C | 54% | 1011.7 hPa | 0 mm | - | 3 W/m² | - |
| 1777802589 | 6.67° C | 54% | 1011.5 hPa | 0 mm | - | 2 W/m² | - |
| 1777802287 | 6.67° C | 55% | 1011.6 hPa | 0 mm | - | 1 W/m² | - |
| 1777801985 | 6.67° C | 55% | 1011.6 hPa | 0 mm | - | 1 W/m² | - |
| 1777801682 | 6.67° C | 54% | 1011.5 hPa | 0 mm | - | 0 W/m² | - |
| 1777801380 | 6.67° C | 54% | 1011.4 hPa | 0 mm | - | 0 W/m² | - |
* Rain latest hour (hover to see other rain measurements)
** Current wind speed in m/s (hover to see current wind gust speed)